2024/01/01 00:00:00,13.2050,0.6858
2024/01/01 06:00:00,13.5330,0.7739
2024/01/01 12:00:00,13.9950,0.7803
2024/01/01 18:00:00,13.6380,0.6665
2024/01/02 00:00:00,13.1800,0.6670
2024/01/02 06:00:00,13.3870,0.6351
2024/01/02 12:00:00,13.7950,0.5885
2024/01/02 18:00:00,13.4660,0.5003
2024/01/03 00:00:00,12.9930,0.4861
2024/01/03 06:00:00,13.3040,0.5616
2024/01/03 12:00:00,13.7460,0.5507
2024/01/03 18:00:00,13.4310,0.4754
2024/01/04 00:00:00,12.9270,0.4288
2024/01/04 06:00:00,13.3130,0.5821
2024/01/04 12:00:00,13.7970,0.6161
2024/01/04 18:00:00,13.4160,0.4703
2024/01/05 00:00:00,12.8840,0.3957
2024/01/05 06:00:00,13.1880,0.4679
2024/01/05 12:00:00,13.6630,0.4930
2024/01/05 18:00:00,13.3550,0.4178
2024/01/06 00:00:00,12.8800,0.3997
2024/01/06 06:00:00,13.2520,0.5428
2024/01/06 12:00:00,13.7290,0.5690
2024/01/06 18:00:00,13.3150,0.3847
2024/01/07 00:00:00,12.8330,0.3602
2024/01/07 06:00:00,13.0800,0.3801
2024/01/07 12:00:00,13.6030,0.4530
2024/01/07 18:00:00,13.2770,0.3557
2024/01/08 00:00:00,12.7420,0.2768
2024/01/08 06:00:00,13.0590,0.3691
2024/01/08 12:00:00,13.6590,0.5176
2024/01/08 18:00:00,13.2960,0.3819
2024/01/09 00:00:00,12.7500,0.2939
2024/01/09 06:00:00,13.1150,0.4359
2024/01/09 12:00:00,13.6800,0.5459
2024/01/09 18:00:00,13.3480,0.4427
2024/01/10 00:00:00,12.8570,0.4104
2024/01/10 06:00:00,13.1740,0.5051
2024/01/10 12:00:00,13.6810,0.5559
2024/01/10 18:00:00,13.2860,0.3872
2024/01/11 00:00:00,12.8010,0.3627
2024/01/11 06:00:00,13.1330,0.4735
2024/01/11 12:00:00,13.6150,0.4972
2024/01/11 18:00:00,13.2600,0.3660
2024/01/12 00:00:00,12.7300,0.2985
2024/01/12 06:00:00,13.1460,0.4938
2024/01/12 12:00:00,13.6260,0.5135
2024/01/12 18:00:00,13.2070,0.3154
2024/01/13 00:00:00,12.6890,0.2607
2024/01/13 06:00:00,13.0270,0.3785
2024/01/13 12:00:00,13.5130,0.4003
2024/01/13 18:00:00,13.2680,0.3769
2024/01/14 00:00:00,12.7000,0.2727
2024/01/14 06:00:00,13.0060,0.3606
2024/01/14 12:00:00,13.5610,0.4489
2024/01/14 18:00:00,13.3160,0.4224
2024/01/15 00:00:00,12.7900,0.3597
2024/01/15 06:00:00,13.0790,0.4331
2024/01/15 12:00:00,13.5540,0.4425
2024/01/15 18:00:00,13.2640,0.3664
2024/01/16 00:00:00,12.7810,0.3490
2024/01/16 06:00:00,13.1070,0.4600
2024/01/16 12:00:00,13.6360,0.5238
2024/01/16 18:00:00,13.3430,0.4419
2024/01/17 00:00:00,12.7950,0.3643
2024/01/17 06:00:00,13.0550,0.4101
2024/01/17 12:00:00,13.5960,0.4853
2024/01/17 18:00:00,13.3650,0.4624
2024/01/18 00:00:00,12.8410,0.4111
2024/01/18 06:00:00,13.1520,0.5051
2024/01/18 12:00:00,13.6600,0.5490
2024/01/18 18:00:00,13.4730,0.5666
2024/01/19 00:00:00,12.9360,0.5039
2024/01/19 06:00:00,13.1860,0.5372
2024/01/19 12:00:00,13.6880,0.5747
2024/01/19 18:00:00,13.3900,0.4809
2024/01/20 00:00:00,12.8170,0.3835
2024/01/20 06:00:00,13.1480,0.4992
2024/01/20 12:00:00,13.6220,0.5072
2024/01/20 18:00:00,13.3110,0.3985
2024/01/21 00:00:00,12.7480,0.3138
2024/01/21 06:00:00,13.0710,0.4203
2024/01/21 12:00:00,13.6150,0.4968
2024/01/21 18:00:00,13.3350,0.4201
2024/01/22 00:00:00,12.8110,0.3753
2024/01/22 06:00:00,13.1690,0.5168
2024/01/22 12:00:00,13.7030,0.5813
2024/01/22 18:00:00,13.3540,0.4350
2024/01/23 00:00:00,12.8560,0.4183
2024/01/23 06:00:00,13.1860,0.5295
2024/01/23 12:00:00,13.6690,0.5415
2024/01/23 18:00:00,13.3910,0.4659
2024/01/24 00:00:00,12.8610,0.4217
2024/01/24 06:00:00,13.2430,0.5812
2024/01/24 12:00:00,13.6060,0.4705
2024/01/24 18:00:00,13.3410,0.4107
2024/01/25 00:00:00,12.9030,0.4609
2024/01/25 06:00:00,13.1790,0.5108
2024/01/25 12:00:00,13.6370,0.4951
2024/01/25 18:00:00,13.3950,0.4586
2024/01/26 00:00:00,12.9400,0.4924
2024/01/26 06:00:00,13.2670,0.5916
2024/01/26 12:00:00,13.6960,0.5443
2024/01/26 18:00:00,13.4950,0.5516
2024/01/27 00:00:00,12.9560,0.5031
2024/01/27 06:00:00,13.3490,0.6675
2024/01/27 12:00:00,13.8160,0.6542
2024/01/27 18:00:00,13.6000,0.6460
2024/01/28 00:00:00,13.0490,0.5887
2024/01/28 06:00:00,13.3770,0.6847
2024/01/28 12:00:00,13.8800,0.7070
2024/01/28 18:00:00,13.5870,0.6201
2024/01/29 00:00:00,13.1020,0.6318
2024/01/29 06:00:00,13.3730,0.6691
2024/01/29 12:00:00,13.9140,0.7300
2024/01/29 18:00:00,13.6510,0.6754
2024/01/30 00:00:00,13.0830,0.6039
2024/01/30 06:00:00,13.4660,0.7487
2024/01/30 12:00:00,13.9250,0.7300
2024/01/30 18:00:00,13.6900,0.7023
2024/01/31 00:00:00,13.2510,0.7592
2024/01/31 06:00:00,13.5120,0.7801
2024/01/31 12:00:00,13.9700,0.7630
2024/01/31 18:00:00,13.7370,0.7369
2024/02/01 00:00:00,13.2630,0.7616
2024/02/01 06:00:00,13.5310,0.7874
2024/02/01 12:00:00,13.9870,0.7685
2024/02/01 18:00:00,13.7010,0.6911
2024/02/02 00:00:00,13.2210,0.7104
2024/02/02 06:00:00,13.5700,0.8174
2024/02/02 12:00:00,13.9490,0.7182
2024/02/02 18:00:00,13.7640,0.7437
2024/02/03 00:00:00,13.3190,0.7993
2024/02/03 06:00:00,13.5960,0.8332
2024/02/03 12:00:00,13.9350,0.6921
2024/02/03 18:00:00,13.7040,0.6716
2024/02/04 00:00:00,13.3110,0.7798
2024/02/04 06:00:00,13.5560,0.7825
2024/02/04 12:00:00,14.0200,0.7669
2024/02/04 18:00:00,13.7710,0.7264
2024/02/05 00:00:00,13.2780,0.7370
2024/02/05 06:00:00,13.6160,0.8302
2024/02/05 12:00:00,14.0580,0.7946
2024/02/05 18:00:00,13.7810,0.7252
2024/02/06 00:00:00,13.2950,0.7423
2024/02/06 06:00:00,13.5980,0.8004
2024/02/06 12:00:00,14.1110,0.8370
2024/02/06 18:00:00,13.8470,0.7825
2024/02/07 00:00:00,13.2720,0.7108
2024/02/07 06:00:00,13.6460,0.8347
2024/02/07 12:00:00,14.1490,0.8633
2024/02/07 18:00:00,13.8540,0.7772
2024/02/08 00:00:00,13.2180,0.6448
2024/02/08 06:00:00,13.7100,0.8878
2024/02/08 12:00:00,14.2550,0.9592
2024/02/08 18:00:00,13.9250,0.8377
2024/02/09 00:00:00,13.3360,0.7534
2024/02/09 06:00:00,13.8270,0.9939
2024/02/09 12:00:00,14.3200,1.0128
2024/02/09 18:00:00,13.9540,0.8544
2024/02/10 00:00:00,13.3140,0.7196
2024/02/10 06:00:00,13.7990,0.9516
2024/02/10 12:00:00,14.3050,0.9847
2024/02/10 18:00:00,13.9260,0.8100
2024/02/11 00:00:00,13.3310,0.7216
2024/02/11 06:00:00,13.8360,0.9717
2024/02/11 12:00:00,14.3720,1.0374
2024/02/11 18:00:00,13.9600,0.8270
2024/02/12 00:00:00,13.4010,0.7746
2024/02/12 06:00:00,13.8150,0.9327
2024/02/12 12:00:00,14.3300,0.9773
2024/02/12 18:00:00,14.0130,0.8626
2024/02/13 00:00:00,13.3670,0.7242
2024/02/13 06:00:00,13.6990,0.7977
2024/02/13 12:00:00,14.1860,0.8155
2024/02/13 18:00:00,13.8930,0.7237
2024/02/14 00:00:00,13.3480,0.6862
2024/02/14 06:00:00,13.6720,0.7516
2024/02/14 12:00:00,14.2010,0.8117
2024/02/14 18:00:00,13.9140,0.7254
2024/02/15 00:00:00,13.3260,0.6477
2024/02/15 06:00:00,13.5770,0.6367
2024/02/15 12:00:00,13.9970,0.5864
2024/02/15 18:00:00,13.7070,0.4974
2024/02/16 00:00:00,13.1620,0.4637
2024/02/16 06:00:00,13.5230,0.5644
2024/02/16 12:00:00,13.9730,0.5417
2024/02/16 18:00:00,13.6870,0.4574
2024/02/17 00:00:00,13.1830,0.4671
2024/02/17 06:00:00,13.5690,0.5910
2024/02/17 12:00:00,13.9490,0.4964
2024/02/17 18:00:00,13.6620,0.4102
2024/02/18 00:00:00,13.1860,0.4507
2024/02/18 06:00:00,13.5020,0.5063
2024/02/18 12:00:00,13.9370,0.4624
2024/02/18 18:00:00,13.6930,0.4209
2024/02/19 00:00:00,13.1280,0.3732
2024/02/19 06:00:00,13.4660,0.4496
2024/02/19 12:00:00,13.9260,0.4314
2024/02/19 18:00:00,13.7070,0.4158
2024/02/20 00:00:00,13.2220,0.4510
2024/02/20 06:00:00,13.4170,0.3824
2024/02/20 12:00:00,13.8660,0.3532
2024/02/20 18:00:00,13.7150,0.4077
2024/02/21 00:00:00,13.1760,0.3883
2024/02/21 06:00:00,13.4310,0.3789
2024/02/21 12:00:00,13.9850,0.4551
2024/02/21 18:00:00,13.7800,0.4564
2024/02/22 00:00:00,13.2560,0.4529
2024/02/22 06:00:00,13.5950,0.5264
2024/02/22 12:00:00,14.0350,0.4876
2024/02/22 18:00:00,13.8300,0.4906
2024/02/23 00:00:00,13.3380,0.5211
2024/02/23 06:00:00,13.7170,0.6309
2024/02/23 12:00:00,14.0870,0.5219
2024/02/23 18:00:00,13.8420,0.4855
2024/02/24 00:00:00,13.2730,0.4411
2024/02/24 06:00:00,13.6310,0.5281
2024/02/24 12:00:00,13.9880,0.4045
2024/02/24 18:00:00,13.7420,0.3691
2024/02/25 00:00:00,13.2840,0.4366
2024/02/25 06:00:00,13.5080,0.3853
2024/02/25 12:00:00,13.9790,0.3762
2024/02/25 18:00:00,13.8470,0.4528
2024/02/26 00:00:00,13.3690,0.5015
2024/02/26 06:00:00,13.6380,0.4922
2024/02/26 12:00:00,14.0780,0.4519
2024/02/26 18:00:00,13.8220,0.4070
2024/02/27 00:00:00,13.3140,0.4256
2024/02/27 06:00:00,13.6380,0.4661
2024/02/27 12:00:00,14.1210,0.4707
2024/02/27 18:00:00,13.8280,0.3922
2024/02/28 00:00:00,13.3230,0.4132
2024/02/28 06:00:00,13.5930,0.3987
2024/02/28 12:00:00,14.0830,0.4082
2024/02/28 18:00:00,13.7680,0.3101
2024/02/29 00:00:00,13.3020,0.3930
2024/02/29 06:00:00,13.5950,0.4007
2024/02/29 12:00:00,13.9930,0.3181
2024/02/29 18:00:00,13.6950,0.2367
2024/03/01 00:00:00,13.1960,0.2645
2024/03/01 06:00:00,13.5840,0.3653
2024/03/01 12:00:00,14.0230,0.3212
2024/03/01 18:00:00,13.8170,0.3350
2024/03/02 00:00:00,13.2730,0.3205
2024/03/02 06:00:00,13.7170,0.4739
2024/03/02 12:00:00,14.2140,0.4864
2024/03/02 18:00:00,14.0320,0.5266
2024/03/03 00:00:00,13.4870,0.5112
2024/03/03 06:00:00,13.8600,0.5905
2024/03/03 12:00:00,14.3090,0.5547
2024/03/03 18:00:00,14.0120,0.4827
2024/03/04 00:00:00,13.5600,0.5588
2024/03/04 06:00:00,13.8780,0.5818
2024/03/04 12:00:00,14.4040,0.6219
2024/03/04 18:00:00,14.1310,0.5786
2024/03/05 00:00:00,13.5340,0.5075
2024/03/05 06:00:00,13.9550,0.6330
2024/03/05 12:00:00,14.3840,0.5757
2024/03/05 18:00:00,14.0610,0.4819
2024/03/06 00:00:00,13.5960,0.5423
2024/03/06 06:00:00,13.9450,0.5947
2024/03/06 12:00:00,14.5140,0.6809
2024/03/06 18:00:00,14.1070,0.5039
2024/03/07 00:00:00,13.5650,0.4859
2024/03/07 06:00:00,13.9480,0.5702
2024/03/07 12:00:00,14.4440,0.5852
2024/03/07 18:00:00,14.0950,0.4658
2024/03/08 00:00:00,13.4990,0.3934
2024/03/08 06:00:00,14.0150,0.6095
2024/03/08 12:00:00,14.4320,0.5487
2024/03/08 18:00:00,14.1490,0.4941
2024/03/09 00:00:00,13.6260,0.4929
2024/03/09 06:00:00,14.0170,0.5809
2024/03/09 12:00:00,14.5100,0.6012
2024/03/09 18:00:00,14.1740,0.4929
2024/03/10 00:00:00,13.6430,0.4810
2024/03/10 06:00:00,14.0420,0.5753
2024/03/10 12:00:00,14.5930,0.6602
2024/03/10 18:00:00,14.2380,0.5293
2024/03/11 00:00:00,13.7860,0.5923
2024/03/11 06:00:00,14.1750,0.6782
2024/03/11 12:00:00,14.6440,0.6866
2024/03/11 18:00:00,14.3250,0.5890
2024/03/12 00:00:00,13.8140,0.5913
2024/03/12 06:00:00,14.2340,0.7054
2024/03/12 12:00:00,14.7610,0.7770
2024/03/12 18:00:00,14.5240,0.7595
2024/03/13 00:00:00,13.8800,0.6272
2024/03/13 06:00:00,14.3180,0.7558
2024/03/13 12:00:00,14.8900,0.8779
2024/03/13 18:00:00,14.5720,0.7779
2024/03/14 00:00:00,13.9740,0.6877
2024/03/14 06:00:00,14.4090,0.8113
2024/03/14 12:00:00,14.9490,0.9075
2024/03/14 18:00:00,14.6290,0.8050
2024/03/15 00:00:00,14.0360,0.7170
2024/03/15 06:00:00,14.4140,0.7822
2024/03/15 12:00:00,14.9520,0.8776
2024/03/15 18:00:00,14.5710,0.7155
2024/03/16 00:00:00,13.9980,0.6458
2024/03/16 06:00:00,14.4140,0.7480
2024/03/16 12:00:00,14.9580,0.8522
2024/03/16 18:00:00,14.6030,0.7175
2024/03/17 00:00:00,14.0580,0.6741
2024/03/17 06:00:00,14.3690,0.6682
2024/03/17 12:00:00,14.8920,0.7542
2024/03/17 18:00:00,14.5010,0.5864
2024/03/18 00:00:00,14.0320,0.6182
2024/03/18 06:00:00,14.4830,0.7523
2024/03/18 12:00:00,14.9430,0.7772
2024/03/18 18:00:00,14.6240,0.6809
2024/03/19 00:00:00,14.0660,0.6236
2024/03/19 06:00:00,14.4290,0.6692
2024/03/19 12:00:00,14.8410,0.6467
2024/03/19 18:00:00,14.6410,0.6705
2024/03/20 00:00:00,14.0270,0.5569
2024/03/20 06:00:00,14.3450,0.5523
2024/03/20 12:00:00,14.7510,0.5243
2024/03/20 18:00:00,14.5340,0.5339
2024/03/21 00:00:00,13.9420,0.4410
2024/03/21 06:00:00,14.3330,0.5084
2024/03/21 12:00:00,14.7520,0.4952
2024/03/21 18:00:00,14.4970,0.4680
2024/03/22 00:00:00,14.0300,0.4994
2024/03/22 06:00:00,14.2410,0.3847
2024/03/22 12:00:00,14.6350,0.3486
2024/03/22 18:00:00,14.4950,0.4376
2024/03/23 00:00:00,13.9450,0.3853
2024/03/23 06:00:00,14.1650,0.2772
2024/03/23 12:00:00,14.6060,0.2890
2024/03/23 18:00:00,14.3810,0.2952
2024/03/24 00:00:00,13.8630,0.2744
2024/03/24 06:00:00,14.1420,0.2221
2024/03/24 12:00:00,14.5640,0.2153
2024/03/24 18:00:00,14.3830,0.2673
2024/03/25 00:00:00,14.0180,0.3973
2024/03/25 06:00:00,14.3390,0.3856
2024/03/25 12:00:00,14.6790,0.2974
2024/03/25 18:00:00,14.4340,0.2857
2024/03/26 00:00:00,13.9910,0.3370
2024/03/26 06:00:00,14.3560,0.3673
2024/03/26 12:00:00,14.7040,0.2883
2024/03/26 18:00:00,14.4980,0.3159
2024/03/27 00:00:00,14.0390,0.3485
2024/03/27 06:00:00,14.4270,0.4021
2024/03/27 12:00:00,14.8090,0.3567
2024/03/27 18:00:00,14.5480,0.3312
2024/03/28 00:00:00,14.2020,0.4815
2024/03/28 06:00:00,14.5770,0.5177
2024/03/28 12:00:00,15.0230,0.5361
2024/03/28 18:00:00,14.7990,0.5492
2024/03/29 00:00:00,14.3400,0.5849
2024/03/29 06:00:00,14.6630,0.5713
2024/03/29 12:00:00,15.0350,0.5158
2024/03/29 18:00:00,14.7440,0.4625
2024/03/30 00:00:00,14.3440,0.5578
2024/03/30 06:00:00,14.6480,0.5218
2024/03/30 12:00:00,15.0080,0.4565
2024/03/30 18:00:00,14.8670,0.5548
2024/03/31 00:00:00,14.3520,0.5335
2024/03/31 06:00:00,14.7010,0.5435
2024/03/31 12:00:00,15.2040,0.6237
2024/03/31 18:00:00,14.9360,0.5941
2024/04/01 00:00:00,14.4570,0.6082
2024/04/01 06:00:00,14.8200,0.6323
2024/04/01 12:00:00,15.2970,0.6904
2024/04/01 18:00:00,15.0400,0.6706
2024/04/02 00:00:00,14.4890,0.6116
2024/04/02 06:00:00,14.8480,0.6341
2024/04/02 12:00:00,15.3450,0.7148
2024/04/02 18:00:00,15.0620,0.6693
2024/04/03 00:00:00,14.5820,0.6813
2024/04/03 06:00:00,14.9740,0.7380
2024/04/03 12:00:00,15.2620,0.6114
2024/04/03 18:00:00,14.9630,0.5494
2024/04/04 00:00:00,14.4950,0.5727
2024/04/04 06:00:00,14.7930,0.5343
2024/04/04 12:00:00,15.1940,0.5238
2024/04/04 18:00:00,14.9270,0.4911
2024/04/05 00:00:00,14.4300,0.4847
2024/04/05 06:00:00,14.7950,0.5134
2024/04/05 12:00:00,15.2030,0.5142
2024/04/05 18:00:00,14.9700,0.5162
2024/04/06 00:00:00,14.4530,0.4836
2024/04/06 06:00:00,14.8080,0.5024
2024/04/06 12:00:00,15.1870,0.4791
2024/04/06 18:00:00,14.9350,0.4617
2024/04/07 00:00:00,14.4930,0.5018
2024/04/07 06:00:00,14.8150,0.4858
2024/04/07 12:00:00,15.1960,0.4673
2024/04/07 18:00:00,15.0510,0.5582
2024/04/08 00:00:00,14.5440,0.5289
2024/04/08 06:00:00,14.9330,0.5795
2024/04/08 12:00:00,15.3460,0.5958
2024/04/08 18:00:00,15.0780,0.5610
2024/04/09 00:00:00,14.5830,0.5417
2024/04/09 06:00:00,14.9420,0.5594
2024/04/09 12:00:00,15.3170,0.5389
2024/04/09 18:00:00,15.0960,0.5508
2024/04/10 00:00:00,14.5270,0.4571
2024/04/10 06:00:00,14.9910,0.5774
2024/04/10 12:00:00,15.3100,0.5011
2024/04/10 18:00:00,15.0450,0.4715
2024/04/11 00:00:00,14.5300,0.4300
2024/04/11 06:00:00,14.8830,0.4363
2024/04/11 12:00:00,15.2780,0.4402
2024/04/11 18:00:00,15.1360,0.5317
2024/04/12 00:00:00,14.7100,0.5794
2024/04/12 06:00:00,15.0910,0.6082
2024/04/12 12:00:00,15.3740,0.5030
2024/04/12 18:00:00,15.1650,0.5273
2024/04/13 00:00:00,14.7180,0.5526
2024/04/13 06:00:00,15.0960,0.5763
2024/04/13 12:00:00,15.4500,0.5439
2024/04/13 18:00:00,15.2210,0.5488
2024/04/14 00:00:00,14.9320,0.7315
2024/04/14 06:00:00,15.3050,0.7450
2024/04/14 12:00:00,15.6130,0.6679
2024/04/14 18:00:00,15.3320,0.6209
2024/04/15 00:00:00,14.9820,0.7411
2024/04/15 06:00:00,15.3220,0.7192
2024/04/15 12:00:00,15.7060,0.7199
2024/04/15 18:00:00,15.4010,0.6479
2024/04/16 00:00:00,14.9290,0.6471
2024/04/16 06:00:00,15.3300,0.6867
2024/04/16 12:00:00,15.6370,0.6104
2024/04/16 18:00:00,15.3820,0.5877
2024/04/17 00:00:00,14.9930,0.6705
2024/04/17 06:00:00,15.3020,0.6178
2024/04/17 12:00:00,15.6740,0.6084
2024/04/17 18:00:00,15.4830,0.6476
2024/04/18 00:00:00,14.9600,0.5968
2024/04/18 06:00:00,15.2820,0.5600
2024/04/18 12:00:00,15.6910,0.5878
2024/04/18 18:00:00,15.4370,0.5629
2024/04/19 00:00:00,14.8500,0.4468
2024/04/19 06:00:00,15.2230,0.4618
2024/04/19 12:00:00,15.6420,0.5010
2024/04/19 18:00:00,15.3670,0.4526
2024/04/20 00:00:00,14.8380,0.3967
2024/04/20 06:00:00,15.1760,0.3788
2024/04/20 12:00:00,15.6010,0.4244
2024/04/20 18:00:00,15.4130,0.4623
2024/04/21 00:00:00,14.9030,0.4240
2024/04/21 06:00:00,15.2070,0.3726
2024/04/21 12:00:00,15.6710,0.4589
2024/04/21 18:00:00,15.3530,0.3695
2024/04/22 00:00:00,14.8760,0.3635
2024/04/22 06:00:00,15.2730,0.4051
2024/04/22 12:00:00,15.6670,0.4218
2024/04/22 18:00:00,15.4450,0.4319
2024/04/23 00:00:00,14.9620,0.4182
2024/04/23 06:00:00,15.3310,0.4335
2024/04/23 12:00:00,15.7820,0.5081
2024/04/23 18:00:00,15.6070,0.5626
2024/04/24 00:00:00,15.0130,0.4407
2024/04/24 06:00:00,15.3000,0.3739
2024/04/24 12:00:00,15.7760,0.4737
2024/04/24 18:00:00,15.5520,0.4787
2024/04/25 00:00:00,15.0610,0.4600
2024/04/25 06:00:00,15.3050,0.3504
2024/04/25 12:00:00,15.7520,0.4221
2024/04/25 18:00:00,15.5940,0.4926
2024/04/26 00:00:00,15.0800,0.4502
2024/04/26 06:00:00,15.3710,0.3871
2024/04/26 12:00:00,15.7770,0.4170
2024/04/26 18:00:00,15.4640,0.3345
2024/04/27 00:00:00,15.0040,0.3472
2024/04/27 06:00:00,15.3160,0.3061
2024/04/27 12:00:00,15.7150,0.3312
2024/04/27 18:00:00,15.4500,0.2976
2024/04/28 00:00:00,15.0260,0.3457
2024/04/28 06:00:00,15.3590,0.3245
2024/04/28 12:00:00,15.7360,0.3284
2024/04/28 18:00:00,15.4460,0.2701
2024/04/29 00:00:00,15.0420,0.3355
2024/04/29 06:00:00,15.4710,0.4115
2024/04/29 12:00:00,15.8610,0.4284
2024/04/29 18:00:00,15.6110,0.4079
2024/04/30 00:00:00,15.1190,0.3850
2024/04/30 06:00:00,15.4860,0.4030
2024/04/30 12:00:00,15.9760,0.5182
2024/04/30 18:00:00,15.7250,0.4945
2024/05/01 00:00:00,15.2690,0.5076
2024/05/01 06:00:00,15.5970,0.4895
2024/05/01 12:00:00,16.0020,0.5193
2024/05/01 18:00:00,15.7630,0.5046
2024/05/02 00:00:00,15.1850,0.3974
2024/05/02 06:00:00,15.4880,0.3541
2024/05/02 12:00:00,15.9640,0.4532
2024/05/02 18:00:00,15.6280,0.3414
